This is the latest recevied weather packets stored in our database for station/object IZ7EXI-13. If no packets are shown the sender has not sent any weather packets the latest 10 day(s).
| Time | Temp. | Humidity | Pressure | Rain* | Wind** | Luminosity | Snow |
|---|---|---|---|---|---|---|---|
| 1777430213 | 15° C | 79% | 1018 hPa | - | - | - | - |
| 1777429312 | 15° C | 79% | 1018 hPa | - | - | - | - |
| 1777428412 | 15° C | 79% | 1017.9 hPa | - | - | - | - |
| 1777427512 | 15.56° C | 80% | 1018 hPa | - | - | - | - |
| 1777426612 | 15.56° C | 81% | 1018 hPa | - | - | - | - |
| 1777425711 | 16.11° C | 81% | 1018 hPa | - | - | - | - |
| 1777424811 | 16.67° C | 83% | 1017.9 hPa | - | - | - | - |
| 1777423911 | 16.67° C | 83% | 1017.9 hPa | - | - | - | - |
| 1777423011 | 16.67° C | 84% | 1017.9 hPa | - | - | - | - |
| 1777422110 | 17.22° C | 83% | 1018 hPa | - | - | - | - |
| 1777421210 | 17.22° C | 82% | 1018 hPa | - | - | - | - |
| 1777420310 | 16.67° C | 83% | 1018.2 hPa | - | - | - | - |
| 1777419444 | 16.67° C | 83% | 1018.4 hPa | - | - | - | - |
| 1777419409 | 16.67° C | 83% | 1018.4 hPa | - | - | - | - |
| 1777418509 | 16.67° C | 82% | 1018.3 hPa | - | - | - | - |
| 1777417609 | 17.22° C | 80% | 1018.3 hPa | - | - | - | - |
| 1777416708 | 17.22° C | 79% | 1018.5 hPa | - | - | - | - |
| 1777415808 | 17.78° C | 78% | 1018.5 hPa | - | - | - | - |
| 1777414908 | 17.78° C | 78% | 1018.5 hPa | - | - | - | - |
| 1777414039 | 17.78° C | 78% | 1018.4 hPa | - | - | - | - |
| 1777414008 | 17.78° C | 78% | 1018.4 hPa | - | - | - | - |
| 1777413107 | 17.78° C | 76% | 1018.5 hPa | - | - | - | - |
| 1777412207 | 18.33° C | 75% | 1018.3 hPa | - | - | - | - |
| 1777411307 | 18.89° C | 75% | 1018.2 hPa | - | - | - | - |
| 1777410407 | 19.44° C | 75% | 1018.2 hPa | - | - | - | - |
* Rain since midnight (hover to see other rain measurements)
** Current wind speed in m/s (hover to see current wind gust speed)